Content
SEND FEEDBACK

Daily
Averages
Monthly
Summary
United States of America

MAURICEVILLE, TEXAS


Home > North America > United States > Texas
Elevation: 6 meters     Latitude: 30 14N     Longitude: 093 44W

WEATHER
 
SELECT A DAY
Number of Records: 108,109;   Date Range: 8/25/05 - 7/27/14
 
SHARE

PRINT THIS DATA

[ ← Previous Day ]
WEATHER ALMANAC - 6 MARCH, 2013
[ Next Day → ]
[ °F ]   °C
Weather ElementAverageHighLow
Temperature10.1 °C19 °C (3:55 pm)3 °C (5:55 am)
Dewpoint0.5 °C6 °C (6:55 pm)-3 °C (2:55 pm)
Humidity57.1 %100 % (9:55 pm)23 % (3:55 pm)
Barometer1026.8 hPa1030.1 hPa (8:15 am)1024.7 hPa (3:55 pm)
Wind Speed5.6 km/h18.5 km/h (8:55 am)
Wind Gust27.8 km/h (8:35 am)
Weather ElementAverage
Visibility16.1 km
Wind DirectionSSE (167.9 °)

Weather ElementTotal
Precipitation---
Heating Degree Days7.3 (Base 18.3)
Growing Degree Days1 (Base 10)
Averaged from 70 records on 6 March, 2013
WEATHER CONDITIONS BREAKOUT
WIND DIRECTION BREAKOUT
WEATHER BY HOUR - 6 MARCH, 2013
[ °F ]   °C
Local TimeTemperatureDewpointHumidityBarometerVisibilityWind DirectionWind SpeedGust SpeedPrecipitationEventsConditions
12:35 AM8 °C0 °C57 %1026.4 hPa16.1 kmNNW (340°)11.1 km/hClear
12:55 AM8 °C0 °C57 %1026.4 hPa16.1 kmNNW (340°)9.3 km/hClear
1:15 AM8 °C0 °C57 %1026.4 hPa16.1 kmNNW (340°)9.3 km/hClear
1:35 AM7 °C0 °C61 %1026.8 hPa16.1 kmNNW (340°)9.3 km/hClear
1:55 AM7 °C0 °C61 %1026.8 hPa16.1 kmNNW (340°)9.3 km/hClear
2:15 AM7 °C-1 °C57 %1026.8 hPa16.1 kmNNW (330°)7.4 km/hClear
2:35 AM6 °C-1 °C61 %1026.8 hPa16.1 kmNNW (340°)9.3 km/hClear
2:55 AM6 °C-1 °C61 %1026.8 hPa16.1 kmNNW (340°)7.4 km/hClear
3:15 AM6 °C-1 °C61 %1026.8 hPa16.1 kmNNW (340°)7.4 km/hClear
3:35 AM5 °C-1 °C65 %1026.8 hPa16.1 kmNNW (340°)5.6 km/hClear
3:55 AM5 °C-1 °C65 %1027.1 hPa16.1 kmNNW (340°)7.4 km/hClear
4:15 AM5 °C-1 °C65 %1027.4 hPa16.1 kmNNW (340°)7.4 km/hClear
4:35 AM5 °C-1 °C65 %1027.4 hPa16.1 kmCalmClear
4:55 AM4 °C-1 °C70 %1027.8 hPa16.1 kmCalmClear
5:15 AM4 °C-1 °C70 %1028.1 hPa16.1 kmCalmClear
5:55 AM3 °C-1 °C75 %1028.4 hPa16.1 kmNorth (350°)5.6 km/hClear
6:15 AM3 °C-1 °C75 %1028.4 hPa16.1 kmNorth (350°)5.6 km/hClear
6:35 AM3 °C-1 °C75 %1028.8 hPa16.1 kmNorth (350°)7.4 km/hClear
6:55 AM3 °C-1 °C75 %1029.1 hPa16.1 kmNorth (350°)7.4 km/hClear
7:15 AM3 °C0 °C81 %1029.1 hPa16.1 kmNorth (350°)7.4 km/hClear
7:35 AM5 °C0 °C70 %1029.5 hPa16.1 kmNorth (350°)9.3 km/hClear
7:55 AM6 °C0 °C66 %1029.8 hPa16.1 kmNorth (360°)7.4 km/hClear
8:15 AM7 °C0 °C61 %1030.1 hPa16.1 kmNorth (10°)14.8 km/hClear
8:35 AM8 °C-1 °C53 %1030.1 hPa16.1 kmNNE (20°)13 km/h27.8 km/hClear
8:55 AM9 °C-1 °C50 %1030.1 hPa16.1 kmNorth (10°)18.5 km/hClear
9:15 AM10 °C-2 °C43 %1030.1 hPa16.1 kmNorth (10°)18.5 km/hClear
9:35 AM10 °C-2 °C43 %1030.1 hPa16.1 kmNNE (20°)14.8 km/hClear
9:55 AM10 °C-2 °C43 %1030.1 hPa16.1 kmNorth (360°)7.4 km/h14.8 km/hClear
10:15 AM11 °C-2 °C41 %1029.8 hPa16.1 kmNorth (360°)5.6 km/hClear
10:35 AM12 °C-2 °C38 %1029.5 hPa16.1 kmCalmClear
10:55 AM13 °C-2 °C36 %1029.5 hPa16.1 kmCalmClear
11:15 AM13 °C-1 °C38 %1029.1 hPa16.1 kmNNW (340°)16.7 km/hClear
11:35 AM14 °C-1 °C36 %1029.1 hPa16.1 kmNNW (330°)7.4 km/hClear
11:55 AM14 °C-1 °C36 %1028.8 hPa16.1 kmNNW (340°)13 km/hClear
12:15 PM15 °C-1 °C34 %1028.1 hPa16.1 kmNW (320°)13 km/hClear
12:35 PM15 °C-1 °C34 %1027.8 hPa16.1 kmNorth (350°)7.4 km/hClear
12:55 PM16 °C-1 °C31 %1027.4 hPa16.1 kmWNW (300°)11.1 km/hClear
1:15 PM16 °C-1 °C31 %1027.1 hPa16.1 kmNNW (340°)7.4 km/hClear
1:35 PM17 °C-1 °C30 %1026.8 hPa16.1 kmNW (310°)9.3 km/hClear
1:55 PM17 °C-1 °C30 %1026.4 hPa16.1 kmCalmClear
2:15 PM17 °C-1 °C30 %1025.7 hPa16.1 kmNNW (330°)11.1 km/hClear
2:35 PM18 °C-2 °C26 %1025.4 hPa16.1 kmWNW (300°)11.1 km/hClear
2:55 PM18 °C-3 °C24 %1025.7 hPa16.1 kmNorth (360°)11.1 km/hClear
3:15 PM18 °C-2 °C26 %1025.4 hPa16.1 kmNorth (360°)11.1 km/hClear
3:35 PM18 °C-1 °C28 %1025.1 hPa16.1 kmCalmClear
3:55 PM19 °C-3 °C23 %1024.7 hPa16.1 kmCalmClear
4:15 PM18 °C-3 °C24 %1024.7 hPa16.1 kmCalmClear
4:35 PM18 °C-2 °C26 %1024.7 hPa16.1 kmCalmClear
4:55 PM18 °C-2 °C26 %1024.7 hPa16.1 kmNorth (10°)5.6 km/hClear
5:15 PM17 °C-1 °C30 %1024.7 hPa16.1 kmCalmClear
5:35 PM17 °C-1 °C30 %1024.7 hPa16.1 kmCalmClear
5:55 PM16 °C0 °C34 %1024.7 hPa16.1 kmCalmClear
6:15 PM15 °C0 °C36 %1025.1 hPa16.1 kmCalmClear
6:35 PM13 °C5 °C58 %1025.1 hPa16.1 kmCalmClear
6:55 PM12 °C6 °C67 %1025.1 hPa16.1 kmSW (230°)5.6 km/hClear
7:15 PM12 °C6 °C67 %1025.1 hPa16.1 kmSSW (210°)5.6 km/hClear
7:35 PM10 °C6 °C76 %1025.1 hPa16.1 kmCalmClear
7:55 PM8 °C6 °C87 %1025.4 hPa16.1 kmCalmClear
8:15 PM7 °C5 °C87 %1025.4 hPa16.1 kmCalmClear
8:35 PM7 °C5 °C87 %1025.4 hPa16.1 kmCalmClear
8:55 PM7 °C5 °C87 %1025.1 hPa16.1 kmCalmClear
9:15 PM7 °C5 °C87 %1025.1 hPa16.1 kmCalmClear
9:35 PM6 °C5 °C93 %1025.4 hPa16.1 kmCalmClear
9:55 PM5 °C5 °C100 %1025.1 hPa16.1 kmCalmClear
10:15 PM6 °C5 °C93 %1025.4 hPa16.1 kmCalmClear
10:35 PM6 °C5 °C93 %1025.4 hPa16.1 kmCalmClear
10:55 PM6 °C6 °C100 %1025.1 hPa16.1 kmCalmClear
11:15 PM7 °C6 °C93 %1024.7 hPa16.1 kmCalmClear
11:35 PM6 °C6 °C100 %1024.7 hPa16.1 kmCalmClear
11:55 PM6 °C6 °C100 %1025.1 hPa16.1 kmCalmClear
Hourly data recorded from KORG, located 0 kilometers away from Mauriceville, Texas







STORIES FROM OUR PARTNERS